Location: Alphen
(52.1351°N, 4.6549°E)
Time: 02:11:12
(UTC+00:00)

Cosmos 2322 Rocket - Pass Details

Date: 27 January 2021
Orbit: 834 x 850 km, 71.0° (Epoch: 26 February)

Event Time Altitude Azimuth Distance (km) Brightness Sun altitude
Exits shadow 04:20:23 18° 353° (N) 1,935 4.0 -28.7°
Drops below altitude 10° 04:22:43 10° 16° (NNE) 2,456 4.8 -28.4°
Sets 04:25:46 0° 32° (NNE) 3,394 5.8 -27.9°
